owner,sensor,date,latitude,longitude,vertical_datum,sea_water_temperature,qcFlag 
TABS,ioos:station:wmo:42048:1,2013-05-01T00:00:00Z,27.9396,-96.8429,-2.0,21.62,11111222 
TABS,ioos:station:wmo:42048:1,2013-05-01T00:30:00Z,27.9396,-96.8429,-2.0,21.56,11111222 
TABS,ioos:station:wmo:42048:1,2013-05-01T01:00:00Z,27.9396,-96.8429,-2.0,21.55,11111222 
TABS,ioos:station:wmo:42048:1,2013-05-01T01:30:00Z,27.9396,-96.8429,-2.0,21.5,11111222 
TABS,ioos:station:wmo:42048:1,2013-05-01T02:00:00Z,27.9396,-96.8429,-2.0,21.49,11111222 
TABS,ioos:station:wmo:42048:1,2013-05-01T02:30:00Z,27.9396,-96.8429,-2.0,21.49,11111222 
TABS,ioos:station:wmo:42048:1,2013-05-01T03:00:00Z,27.9396,-96.8429,-2.0,21.46,11111222 
TABS,ioos:station:wmo:42048:1,2013-05-01T03:30:00Z,27.9396,-96.8429,-2.0,21.42,11111222 
TABS,ioos:station:wmo:42048:1,2013-05-01T04:00:00Z,27.9396,-96.8429,-2.0,21.38,11111222 
TABS,ioos:station:wmo:42048:1,2013-05-01T04:30:00Z,27.9396,-96.8429,-2.0,21.49,11111222 
TABS,ioos:station:wmo:42048:1,2013-05-01T05:00:00Z,27.9396,-96.8429,-2.0,21.48,11111222 
TABS,ioos:station:wmo:42048:1,2013-05-01T05:30:00Z,27.9396,-96.8429,-2.0,21.44,11111222 
TABS,ioos:station:wmo:42048:1,2013-05-01T06:00:00Z,27.9396,-96.8429,-2.0,21.41,11111222 
TABS,ioos:station:wmo:42048:1,2013-05-01T06:30:00Z,27.9396,-96.8429,-2.0,21.38,11111222 
TABS,ioos:station:wmo:42048:1,2013-05-01T07:00:00Z,27.9396,-96.8429,-2.0,21.34,11111222 
TABS,ioos:station:wmo:42048:1,2013-05-01T07:30:00Z,27.9396,-96.8429,-2.0,21.35,11111222 
TABS,ioos:station:wmo:42048:1,2013-05-01T08:00:00Z,27.9396,-96.8429,-2.0,21.36,11111222 
TABS,ioos:station:wmo:42048:1,2013-05-01T08:30:00Z,27.9396,-96.8429,-2.0,21.42,11111222 
TABS,ioos:station:wmo:42048:1,2013-05-01T09:00:00Z,27.9396,-96.8429,-2.0,21.38,11111222 
TABS,ioos:station:wmo:42048:1,2013-05-01T09:30:00Z,27.9396,-96.8429,-2.0,21.43,11111222 
TABS,ioos:station:wmo:42048:1,2013-05-01T10:00:00Z,27.9396,-96.8429,-2.0,21.45,11111222 
TABS,ioos:station:wmo:42048:1,2013-05-01T10:30:00Z,27.9396,-96.8429,-2.0,21.44,11111222 
TABS,ioos:station:wmo:42048:1,2013-05-01T11:00:00Z,27.9396,-96.8429,-2.0,21.48,11111222 
TABS,ioos:station:wmo:42048:1,2013-05-01T11:30:00Z,27.9396,-96.8429,-2.0,21.49,11111222 
TABS,ioos:station:wmo:42048:1,2013-05-01T12:00:00Z,27.9396,-96.8429,-2.0,21.53,11111222 
TABS,ioos:station:wmo:42048:1,2013-05-01T12:30:00Z,27.9396,-96.8429,-2.0,21.59,11111222 
TABS,ioos:station:wmo:42048:1,2013-05-01T13:00:00Z,27.9396,-96.8429,-2.0,21.63,11111222 
TABS,ioos:station:wmo:42048:1,2013-05-01T13:30:00Z,27.9396,-96.8429,-2.0,21.66,11111222 
TABS,ioos:station:wmo:42048:1,2013-05-01T14:00:00Z,27.9396,-96.8429,-2.0,21.7,11111222 
TABS,ioos:station:wmo:42048:1,2013-05-01T14:30:00Z,27.9396,-96.8429,-2.0,21.75,11111222 
TABS,ioos:station:wmo:42048:1,2013-05-01T15:00:00Z,27.9396,-96.8429,-2.0,21.86,11111222 
TABS,ioos:station:wmo:42048:1,2013-05-01T15:30:00Z,27.9396,-96.8429,-2.0,21.99,11111222 
TABS,ioos:station:wmo:42048:1,2013-05-01T16:00:00Z,27.9396,-96.8429,-2.0,22.07,11111222 
TABS,ioos:station:wmo:42048:1,2013-05-01T16:30:00Z,27.9396,-96.8429,-2.0,22.12,11111222 
TABS,ioos:station:wmo:42048:1,2013-05-01T17:00:00Z,27.9396,-96.8429,-2.0,22.22,11111222 
TABS,ioos:station:wmo:42048:1,2013-05-01T17:30:00Z,27.9396,-96.8429,-2.0,22.28,11111222 
TABS,ioos:station:wmo:42048:1,2013-05-01T18:00:00Z,27.9396,-96.8429,-2.0,22.31,11111222 
TABS,ioos:station:wmo:42048:1,2013-05-01T18:30:00Z,27.9396,-96.8429,-2.0,22.33,11111222 
TABS,ioos:station:wmo:42048:1,2013-05-01T19:00:00Z,27.9396,-96.8429,-2.0,22.41,11111222 
TABS,ioos:station:wmo:42048:1,2013-05-01T19:30:00Z,27.9396,-96.8429,-2.0,22.43,11111222 
TABS,ioos:station:wmo:42048:1,2013-05-01T20:00:00Z,27.9396,-96.8429,-2.0,22.47,11111222 
TABS,ioos:station:wmo:42048:1,2013-05-01T20:30:00Z,27.9396,-96.8429,-2.0,22.49,11111222 
TABS,ioos:station:wmo:42048:1,2013-05-01T21:00:00Z,27.9396,-96.8429,-2.0,22.52,11111222 
TABS,ioos:station:wmo:42048:1,2013-05-01T21:30:00Z,27.9396,-96.8429,-2.0,22.55,11111222 
TABS,ioos:station:wmo:42048:1,2013-05-01T22:00:00Z,27.9396,-96.8429,-2.0,22.57,11111222 
TABS,ioos:station:wmo:42048:1,2013-05-01T22:30:00Z,27.9396,-96.8429,-2.0,22.58,11111222 
TABS,ioos:station:wmo:42048:1,2013-05-01T23:00:00Z,27.9396,-96.8429,-2.0,22.59,11111222 
TABS,ioos:station:wmo:42048:1,2013-05-01T23:30:00Z,27.9396,-96.8429,-2.0,22.57,11111222 
TABS,ioos:station:wmo:42048:1,2013-05-02T00:00:00Z,27.9396,-96.8429,-2.0,22.53,11111222 
TABS,ioos:station:wmo:42048:1,2013-05-02T00:30:00Z,27.9396,-96.8429,-2.0,22.46,11111222 
TABS,ioos:station:wmo:42048:1,2013-05-02T01:00:00Z,27.9396,-96.8429,-2.0,22.37,11111222 
TABS,ioos:station:wmo:42048:1,2013-05-02T01:30:00Z,27.9396,-96.8429,-2.0,22.33,11111222 
TABS,ioos:station:wmo:42048:1,2013-05-02T02:00:00Z,27.9396,-96.8429,-2.0,22.28,11111222 
TABS,ioos:station:wmo:42048:1,2013-05-02T02:30:00Z,27.9396,-96.8429,-2.0,22.25,11111222 
TABS,ioos:station:wmo:42048:1,2013-05-02T03:00:00Z,27.9396,-96.8429,-2.0,22.21,11111222 
TABS,ioos:station:wmo:42048:1,2013-05-02T03:30:00Z,27.9396,-96.8429,-2.0,22.18,11111222 
TABS,ioos:station:wmo:42048:1,2013-05-02T04:00:00Z,27.9396,-96.8429,-2.0,22.16,11111222 
TABS,ioos:station:wmo:42048:1,2013-05-02T04:30:00Z,27.9396,-96.8429,-2.0,22.13,11111222 
TABS,ioos:station:wmo:42048:1,2013-05-02T05:00:00Z,27.9396,-96.8429,-2.0,22.11,11111222 
TABS,ioos:station:wmo:42048:1,2013-05-02T05:30:00Z,27.9396,-96.8429,-2.0,22.09,11111222 
TABS,ioos:station:wmo:42048:1,2013-05-02T06:00:00Z,27.9396,-96.8429,-2.0,22.08,11111222 
TABS,ioos:station:wmo:42048:1,2013-05-02T06:30:00Z,27.9396,-96.8429,-2.0,22.08,11111222 
TABS,ioos:station:wmo:42048:1,2013-05-02T07:00:00Z,27.9396,-96.8429,-2.0,22.09,11111222 
TABS,ioos:station:wmo:42048:1,2013-05-02T07:30:00Z,27.9396,-96.8429,-2.0,22.1,11111222 
TABS,ioos:station:wmo:42048:1,2013-05-02T08:00:00Z,27.9396,-96.8429,-2.0,22.1,11111222 
TABS,ioos:station:wmo:42048:1,2013-05-02T08:30:00Z,27.9396,-96.8429,-2.0,22.12,11111222 
TABS,ioos:station:wmo:42048:1,2013-05-02T09:00:00Z,27.9396,-96.8429,-2.0,22.15,11111222 
TABS,ioos:station:wmo:42048:1,2013-05-02T09:30:00Z,27.9396,-96.8429,-2.0,22.21,11111222 
TABS,ioos:station:wmo:42048:1,2013-05-02T10:00:00Z,27.9396,-96.8429,-2.0,22.22,11111222 
TABS,ioos:station:wmo:42048:1,2013-05-02T10:30:00Z,27.9396,-96.8429,-2.0,22.27,11111222 
TABS,ioos:station:wmo:42048:1,2013-05-02T11:00:00Z,27.9396,-96.8429,-2.0,22.34,11111222 
TABS,ioos:station:wmo:42048:1,2013-05-02T11:30:00Z,27.9396,-96.8429,-2.0,22.39,11111222 
TABS,ioos:station:wmo:42048:1,2013-05-02T12:00:00Z,27.9396,-96.8429,-2.0,22.42,11111222 
TABS,ioos:station:wmo:42048:1,2013-05-02T12:30:00Z,27.9396,-96.8429,-2.0,22.35,11111222 
TABS,ioos:station:wmo:42048:1,2013-05-02T13:00:00Z,27.9396,-96.8429,-2.0,22.3,11111222 
TABS,ioos:station:wmo:42048:1,2013-05-02T13:30:00Z,27.9396,-96.8429,-2.0,22.3,11111222 
TABS,ioos:station:wmo:42048:1,2013-05-02T14:00:00Z,27.9396,-96.8429,-2.0,22.24,11111222 
TABS,ioos:station:wmo:42048:1,2013-05-02T14:30:00Z,27.9396,-96.8429,-2.0,22.14,11111222 
TABS,ioos:station:wmo:42048:1,2013-05-02T15:00:00Z,27.9396,-96.8429,-2.0,22.23,11111222 
TABS,ioos:station:wmo:42048:1,2013-05-02T15:30:00Z,27.9396,-96.8429,-2.0,22.33,11111222 
TABS,ioos:station:wmo:42048:1,2013-05-02T16:00:00Z,27.9396,-96.8429,-2.0,22.41,11111222 
TABS,ioos:station:wmo:42048:1,2013-05-02T16:30:00Z,27.9396,-96.8429,-2.0,22.57,11111222 
TABS,ioos:station:wmo:42048:1,2013-05-02T17:00:00Z,27.9396,-96.8429,-2.0,22.67,11111222 
TABS,ioos:station:wmo:42048:1,2013-05-02T17:30:00Z,27.9396,-96.8429,-2.0,22.7,11111222 
TABS,ioos:station:wmo:42048:1,2013-05-02T18:00:00Z,27.9396,-96.8429,-2.0,22.7,11111222 
TABS,ioos:station:wmo:42048:1,2013-05-02T18:30:00Z,27.9396,-96.8429,-2.0,22.62,11111222 
TABS,ioos:station:wmo:42048:1,2013-05-02T19:00:00Z,27.9396,-96.8429,-2.0,22.4,11111222 
TABS,ioos:station:wmo:42048:1,2013-05-02T19:30:00Z,27.9396,-96.8429,-2.0,22.14,11111222 
TABS,ioos:station:wmo:42048:1,2013-05-02T20:00:00Z,27.9396,-96.8429,-2.0,22.03,11111222 
TABS,ioos:station:wmo:42048:1,2013-05-02T20:30:00Z,27.9396,-96.8429,-2.0,21.9,11111222 
TABS,ioos:station:wmo:42048:1,2013-05-02T21:00:00Z,27.9396,-96.8429,-2.0,21.75,11111222 
TABS,ioos:station:wmo:42048:1,2013-05-02T21:30:00Z,27.9396,-96.8429,-2.0,21.66,11111222 
TABS,ioos:station:wmo:42048:1,2013-05-02T22:00:00Z,27.9396,-96.8429,-2.0,21.59,11111222 
TABS,ioos:station:wmo:42048:1,2013-05-02T22:30:00Z,27.9396,-96.8429,-2.0,21.52,11111222 
TABS,ioos:station:wmo:42048:1,2013-05-02T23:00:00Z,27.9396,-96.8429,-2.0,21.43,11111222 
TABS,ioos:station:wmo:42048:1,2013-05-02T23:30:00Z,27.9396,-96.8429,-2.0,21.46,11111222 
TABS,ioos:station:wmo:42048:1,2013-05-03T00:00:00Z,27.9396,-96.8429,-2.0,21.39,11111222 
TABS,ioos:station:wmo:42048:1,2013-05-03T00:30:00Z,27.9396,-96.8429,-2.0,21.31,11111222 
TABS,ioos:station:wmo:42048:1,2013-05-03T01:00:00Z,27.9396,-96.8429,-2.0,21.19,11111222 
TABS,ioos:station:wmo:42048:1,2013-05-03T01:30:00Z,27.9396,-96.8429,-2.0,21.12,11111222 
TABS,ioos:station:wmo:42048:1,2013-05-03T02:00:00Z,27.9396,-96.8429,-2.0,21.08,11111222 
TABS,ioos:station:wmo:42048:1,2013-05-03T02:30:00Z,27.9396,-96.8429,-2.0,20.99,11111222 
TABS,ioos:station:wmo:42048:1,2013-05-03T03:00:00Z,27.9396,-96.8429,-2.0,20.89,11111222 
TABS,ioos:station:wmo:42048:1,2013-05-03T03:30:00Z,27.9396,-96.8429,-2.0,20.82,11111222 
TABS,ioos:station:wmo:42048:1,2013-05-03T04:00:00Z,27.9396,-96.8429,-2.0,20.78,11111222 
TABS,ioos:station:wmo:42048:1,2013-05-03T04:30:00Z,27.9396,-96.8429,-2.0,20.75,11111222 
TABS,ioos:station:wmo:42048:1,2013-05-03T05:00:00Z,27.9396,-96.8429,-2.0,20.75,11111222 
TABS,ioos:station:wmo:42048:1,2013-05-03T05:30:00Z,27.9396,-96.8429,-2.0,20.71,11111222 
TABS,ioos:station:wmo:42048:1,2013-05-03T06:00:00Z,27.9396,-96.8429,-2.0,20.65,11111222 
TABS,ioos:station:wmo:42048:1,2013-05-03T06:30:00Z,27.9396,-96.8429,-2.0,20.64,11111222 
TABS,ioos:station:wmo:42048:1,2013-05-03T07:00:00Z,27.9396,-96.8429,-2.0,20.63,11111222 
TABS,ioos:station:wmo:42048:1,2013-05-03T07:30:00Z,27.9396,-96.8429,-2.0,20.57,11111222 
TABS,ioos:station:wmo:42048:1,2013-05-03T08:00:00Z,27.9396,-96.8429,-2.0,20.57,11111222 
TABS,ioos:station:wmo:42048:1,2013-05-03T08:30:00Z,27.9396,-96.8429,-2.0,20.52,11111222 
TABS,ioos:station:wmo:42048:1,2013-05-03T09:00:00Z,27.9396,-96.8429,-2.0,20.5,11111222 
TABS,ioos:station:wmo:42048:1,2013-05-03T09:30:00Z,27.9396,-96.8429,-2.0,20.47,11111222 
TABS,ioos:station:wmo:42048:1,2013-05-03T10:00:00Z,27.9396,-96.8429,-2.0,20.43,11111222 
TABS,ioos:station:wmo:42048:1,2013-05-03T10:30:00Z,27.9396,-96.8429,-2.0,20.4,11111222 
TABS,ioos:station:wmo:42048:1,2013-05-03T11:00:00Z,27.9396,-96.8429,-2.0,20.38,11111222 
TABS,ioos:station:wmo:42048:1,2013-05-03T11:30:00Z,27.9396,-96.8429,-2.0,20.35,11111222 
TABS,ioos:station:wmo:42048:1,2013-05-03T12:00:00Z,27.9396,-96.8429,-2.0,20.32,11111222 
TABS,ioos:station:wmo:42048:1,2013-05-03T12:30:00Z,27.9396,-96.8429,-2.0,20.28,11111222 
TABS,ioos:station:wmo:42048:1,2013-05-03T13:00:00Z,27.9396,-96.8429,-2.0,20.27,11111222 
TABS,ioos:station:wmo:42048:1,2013-05-03T13:30:00Z,27.9396,-96.8429,-2.0,20.24,11111222 
TABS,ioos:station:wmo:42048:1,2013-05-03T14:00:00Z,27.9396,-96.8429,-2.0,20.21,11111222 
TABS,ioos:station:wmo:42048:1,2013-05-03T14:30:00Z,27.9396,-96.8429,-2.0,20.24,11111222 
TABS,ioos:station:wmo:42048:1,2013-05-03T15:00:00Z,27.9396,-96.8429,-2.0,20.23,11111222 
TABS,ioos:station:wmo:42048:1,2013-05-03T15:30:00Z,27.9396,-96.8429,-2.0,20.22,11111222 
TABS,ioos:station:wmo:42048:1,2013-05-03T16:00:00Z,27.9396,-96.8429,-2.0,20.21,11111222 
TABS,ioos:station:wmo:42048:1,2013-05-03T16:30:00Z,27.9396,-96.8429,-2.0,20.23,11111222 
TABS,ioos:station:wmo:42048:1,2013-05-03T17:00:00Z,27.9396,-96.8429,-2.0,20.24,11111222 
TABS,ioos:station:wmo:42048:1,2013-05-03T17:30:00Z,27.9396,-96.8429,-2.0,20.25,11111222 
TABS,ioos:station:wmo:42048:1,2013-05-03T18:00:00Z,27.9396,-96.8429,-2.0,20.28,11111222 
TABS,ioos:station:wmo:42048:1,2013-05-03T18:30:00Z,27.9396,-96.8429,-2.0,20.29,11111222 
TABS,ioos:station:wmo:42048:1,2013-05-03T19:00:00Z,27.9396,-96.8429,-2.0,20.3,11111222 
TABS,ioos:station:wmo:42048:1,2013-05-03T19:30:00Z,27.9396,-96.8429,-2.0,20.32,11111222 
TABS,ioos:station:wmo:42048:1,2013-05-03T20:00:00Z,27.9396,-96.8429,-2.0,20.34,11111222 
TABS,ioos:station:wmo:42048:1,2013-05-03T20:30:00Z,27.9396,-96.8429,-2.0,20.35,11111222 
TABS,ioos:station:wmo:42048:1,2013-05-03T21:00:00Z,27.9396,-96.8429,-2.0,20.36,11111222 
TABS,ioos:station:wmo:42048:1,2013-05-03T21:30:00Z,27.9396,-96.8429,-2.0,20.36,11111222 
TABS,ioos:station:wmo:42048:1,2013-05-03T22:00:00Z,27.9396,-96.8429,-2.0,20.36,11111222 
TABS,ioos:station:wmo:42048:1,2013-05-03T22:30:00Z,27.9396,-96.8429,-2.0,20.36,11111222 
TABS,ioos:station:wmo:42048:1,2013-05-03T23:00:00Z,27.9396,-96.8429,-2.0,20.36,11111222 
TABS,ioos:station:wmo:42048:1,2013-05-03T23:30:00Z,27.9396,-96.8429,-2.0,20.34,11111222 
TABS,ioos:station:wmo:42048:1,2013-05-04T00:00:00Z,27.9396,-96.8429,-2.0,20.34,11111222 
TABS,ioos:station:wmo:42048:1,2013-05-04T00:30:00Z,27.9396,-96.8429,-2.0,20.32,11111222 
TABS,ioos:station:wmo:42048:1,2013-05-04T01:00:00Z,27.9396,-96.8429,-2.0,20.31,11111222 
TABS,ioos:station:wmo:42048:1,2013-05-04T01:30:00Z,27.9396,-96.8429,-2.0,20.28,11111222 
TABS,ioos:station:wmo:42048:1,2013-05-04T02:00:00Z,27.9396,-96.8429,-2.0,20.27,11111222 
TABS,ioos:station:wmo:42048:1,2013-05-04T02:30:00Z,27.9396,-96.8429,-2.0,20.26,11111222 
TABS,ioos:station:wmo:42048:1,2013-05-04T03:00:00Z,27.9396,-96.8429,-2.0,20.25,11111222 
TABS,ioos:station:wmo:42048:1,2013-05-04T03:30:00Z,27.9396,-96.8429,-2.0,20.22,11111222 
TABS,ioos:station:wmo:42048:1,2013-05-04T04:00:00Z,27.9396,-96.8429,-2.0,20.22,11111222 
TABS,ioos:station:wmo:42048:1,2013-05-04T04:30:00Z,27.9396,-96.8429,-2.0,20.2,11111222 
TABS,ioos:station:wmo:42048:1,2013-05-04T05:00:00Z,27.9396,-96.8429,-2.0,20.2,11111222 
TABS,ioos:station:wmo:42048:1,2013-05-04T05:30:00Z,27.9396,-96.8429,-2.0,20.17,11111222 
TABS,ioos:station:wmo:42048:1,2013-05-04T06:00:00Z,27.9396,-96.8429,-2.0,20.17,11111222 
TABS,ioos:station:wmo:42048:1,2013-05-04T06:30:00Z,27.9396,-96.8429,-2.0,20.16,11111222 
TABS,ioos:station:wmo:42048:1,2013-05-04T07:00:00Z,27.9396,-96.8429,-2.0,20.15,11111222 
TABS,ioos:station:wmo:42048:1,2013-05-04T07:30:00Z,27.9396,-96.8429,-2.0,20.13,11111222 
TABS,ioos:station:wmo:42048:1,2013-05-04T08:00:00Z,27.9396,-96.8429,-2.0,20.11,11111222 
TABS,ioos:station:wmo:42048:1,2013-05-04T08:30:00Z,27.9396,-96.8429,-2.0,20.11,11111222 
TABS,ioos:station:wmo:42048:1,2013-05-04T09:00:00Z,27.9396,-96.8429,-2.0,20.11,11111222 
TABS,ioos:station:wmo:42048:1,2013-05-04T09:30:00Z,27.9396,-96.8429,-2.0,20.1,11111222 
TABS,ioos:station:wmo:42048:1,2013-05-04T10:00:00Z,27.9396,-96.8429,-2.0,20.1,11111222 
TABS,ioos:station:wmo:42048:1,2013-05-04T10:30:00Z,27.9396,-96.8429,-2.0,20.09,11111222 
TABS,ioos:station:wmo:42048:1,2013-05-04T11:00:00Z,27.9396,-96.8429,-2.0,20.02,11111222 
TABS,ioos:station:wmo:42048:1,2013-05-04T11:30:00Z,27.9396,-96.8429,-2.0,19.96,11111222 
TABS,ioos:station:wmo:42048:1,2013-05-04T12:00:00Z,27.9396,-96.8429,-2.0,19.95,11111222 
TABS,ioos:station:wmo:42048:1,2013-05-04T12:30:00Z,27.9396,-96.8429,-2.0,19.95,11111222 
TABS,ioos:station:wmo:42048:1,2013-05-04T13:00:00Z,27.9396,-96.8429,-2.0,19.96,11111222 
TABS,ioos:station:wmo:42048:1,2013-05-04T13:30:00Z,27.9396,-96.8429,-2.0,19.97,11111222 
TABS,ioos:station:wmo:42048:1,2013-05-04T14:00:00Z,27.9396,-96.8429,-2.0,19.99,11111222 
TABS,ioos:station:wmo:42048:1,2013-05-04T14:30:00Z,27.9396,-96.8429,-2.0,20.01,11111222 
TABS,ioos:station:wmo:42048:1,2013-05-04T15:00:00Z,27.9396,-96.8429,-2.0,20.02,11111222 
TABS,ioos:station:wmo:42048:1,2013-05-04T15:30:00Z,27.9396,-96.8429,-2.0,20.07,11111222 
TABS,ioos:station:wmo:42048:1,2013-05-04T16:00:00Z,27.9396,-96.8429,-2.0,20.1,11111222 
TABS,ioos:station:wmo:42048:1,2013-05-04T16:30:00Z,27.9396,-96.8429,-2.0,20.15,11111222 
TABS,ioos:station:wmo:42048:1,2013-05-04T17:00:00Z,27.9396,-96.8429,-2.0,20.19,11111222 
TABS,ioos:station:wmo:42048:1,2013-05-04T17:30:00Z,27.9396,-96.8429,-2.0,20.25,11111222 
TABS,ioos:station:wmo:42048:1,2013-05-04T18:00:00Z,27.9396,-96.8429,-2.0,20.26,11111222 
TABS,ioos:station:wmo:42048:1,2013-05-04T18:30:00Z,27.9396,-96.8429,-2.0,20.3,11111222 
TABS,ioos:station:wmo:42048:1,2013-05-04T19:00:00Z,27.9396,-96.8429,-2.0,20.34,11111222 
TABS,ioos:station:wmo:42048:1,2013-05-04T19:30:00Z,27.9396,-96.8429,-2.0,20.4,11111222 
TABS,ioos:station:wmo:42048:1,2013-05-04T20:00:00Z,27.9396,-96.8429,-2.0,20.45,11111222 
TABS,ioos:station:wmo:42048:1,2013-05-04T20:30:00Z,27.9396,-96.8429,-2.0,20.53,11111222 
TABS,ioos:station:wmo:42048:1,2013-05-04T21:00:00Z,27.9396,-96.8429,-2.0,20.57,11111222 
TABS,ioos:station:wmo:42048:1,2013-05-04T21:30:00Z,27.9396,-96.8429,-2.0,20.56,11111222 
TABS,ioos:station:wmo:42048:1,2013-05-04T22:00:00Z,27.9396,-96.8429,-2.0,20.51,11111222 
TABS,ioos:station:wmo:42048:1,2013-05-04T22:30:00Z,27.9396,-96.8429,-2.0,20.45,11111222 
TABS,ioos:station:wmo:42048:1,2013-05-04T23:00:00Z,27.9396,-96.8429,-2.0,20.42,11111222 
TABS,ioos:station:wmo:42048:1,2013-05-04T23:30:00Z,27.9396,-96.8429,-2.0,20.39,11111222 
TABS,ioos:station:wmo:42048:1,2013-05-05T00:00:00Z,27.9396,-96.8429,-2.0,20.37,11111222 
TABS,ioos:station:wmo:42048:1,2013-05-05T00:30:00Z,27.9396,-96.8429,-2.0,20.35,11111222 
TABS,ioos:station:wmo:42048:1,2013-05-05T01:00:00Z,27.9396,-96.8429,-2.0,20.35,11111222 
TABS,ioos:station:wmo:42048:1,2013-05-05T01:30:00Z,27.9396,-96.8429,-2.0,20.32,11111222 
TABS,ioos:station:wmo:42048:1,2013-05-05T02:00:00Z,27.9396,-96.8429,-2.0,20.32,11111222 
TABS,ioos:station:wmo:42048:1,2013-05-05T02:30:00Z,27.9396,-96.8429,-2.0,20.32,11111222 
TABS,ioos:station:wmo:42048:1,2013-05-05T03:00:00Z,27.9396,-96.8429,-2.0,20.31,11111222 
TABS,ioos:station:wmo:42048:1,2013-05-05T03:30:00Z,27.9396,-96.8429,-2.0,20.27,11111222 
TABS,ioos:station:wmo:42048:1,2013-05-05T04:00:00Z,27.9396,-96.8429,-2.0,20.27,11111222 
TABS,ioos:station:wmo:42048:1,2013-05-05T04:30:00Z,27.9396,-96.8429,-2.0,20.26,11111222 
TABS,ioos:station:wmo:42048:1,2013-05-05T05:00:00Z,27.9396,-96.8429,-2.0,20.26,11111222 
TABS,ioos:station:wmo:42048:1,2013-05-05T05:30:00Z,27.9396,-96.8429,-2.0,20.24,11111222 
TABS,ioos:station:wmo:42048:1,2013-05-05T06:00:00Z,27.9396,-96.8429,-2.0,20.23,11111222 
TABS,ioos:station:wmo:42048:1,2013-05-05T06:30:00Z,27.9396,-96.8429,-2.0,20.23,11111222 
TABS,ioos:station:wmo:42048:1,2013-05-05T07:00:00Z,27.9396,-96.8429,-2.0,20.25,11111222 
TABS,ioos:station:wmo:42048:1,2013-05-05T07:30:00Z,27.9396,-96.8429,-2.0,20.25,11111222 
TABS,ioos:station:wmo:42048:1,2013-05-05T08:00:00Z,27.9396,-96.8429,-2.0,20.23,11111222 
TABS,ioos:station:wmo:42048:1,2013-05-05T08:30:00Z,27.9396,-96.8429,-2.0,20.22,11111222 
TABS,ioos:station:wmo:42048:1,2013-05-05T09:00:00Z,27.9396,-96.8429,-2.0,20.22,11111222 
TABS,ioos:station:wmo:42048:1,2013-05-05T09:30:00Z,27.9396,-96.8429,-2.0,20.21,11111222 
TABS,ioos:station:wmo:42048:1,2013-05-05T10:00:00Z,27.9396,-96.8429,-2.0,20.2,11111222 
TABS,ioos:station:wmo:42048:1,2013-05-05T10:30:00Z,27.9396,-96.8429,-2.0,20.16,11111222 
TABS,ioos:station:wmo:42048:1,2013-05-05T11:00:00Z,27.9396,-96.8429,-2.0,20.15,11111222 
TABS,ioos:station:wmo:42048:1,2013-05-05T11:30:00Z,27.9396,-96.8429,-2.0,20.11,11111222 
TABS,ioos:station:wmo:42048:1,2013-05-05T12:00:00Z,27.9396,-96.8429,-2.0,20.08,11111222 
TABS,ioos:station:wmo:42048:1,2013-05-05T12:30:00Z,27.9396,-96.8429,-2.0,20.03,11111222 
TABS,ioos:station:wmo:42048:1,2013-05-05T13:00:00Z,27.9396,-96.8429,-2.0,20.05,11111222 
TABS,ioos:station:wmo:42048:1,2013-05-05T13:30:00Z,27.9396,-96.8429,-2.0,20.06,11111222 
TABS,ioos:station:wmo:42048:1,2013-05-05T14:00:00Z,27.9396,-96.8429,-2.0,20.09,11111222 
TABS,ioos:station:wmo:42048:1,2013-05-05T14:30:00Z,27.9396,-96.8429,-2.0,20.08,11111222 
TABS,ioos:station:wmo:42048:1,2013-05-05T15:00:00Z,27.9396,-96.8429,-2.0,20.09,11111222 
TABS,ioos:station:wmo:42048:1,2013-05-05T15:30:00Z,27.9396,-96.8429,-2.0,20.14,11111222 
TABS,ioos:station:wmo:42048:1,2013-05-05T16:00:00Z,27.9396,-96.8429,-2.0,20.17,11111222 
TABS,ioos:station:wmo:42048:1,2013-05-05T16:30:00Z,27.9396,-96.8429,-2.0,20.25,11111222 
TABS,ioos:station:wmo:42048:1,2013-05-05T17:00:00Z,27.9396,-96.8429,-2.0,20.3,11111222 
TABS,ioos:station:wmo:42048:1,2013-05-05T17:30:00Z,27.9396,-96.8429,-2.0,20.35,11111222 
TABS,ioos:station:wmo:42048:1,2013-05-05T18:00:00Z,27.9396,-96.8429,-2.0,20.44,11111222 
TABS,ioos:station:wmo:42048:1,2013-05-05T18:30:00Z,27.9396,-96.8429,-2.0,20.49,11111222 
TABS,ioos:station:wmo:42048:1,2013-05-05T19:00:00Z,27.9396,-96.8429,-2.0,20.5,11111222 
TABS,ioos:station:wmo:42048:1,2013-05-05T19:30:00Z,27.9396,-96.8429,-2.0,20.51,11111222 
TABS,ioos:station:wmo:42048:1,2013-05-05T20:00:00Z,27.9396,-96.8429,-2.0,20.55,11111222 
TABS,ioos:station:wmo:42048:1,2013-05-05T20:30:00Z,27.9396,-96.8429,-2.0,20.57,11111222 
TABS,ioos:station:wmo:42048:1,2013-05-05T21:00:00Z,27.9396,-96.8429,-2.0,20.59,11111222 
TABS,ioos:station:wmo:42048:1,2013-05-05T21:30:00Z,27.9396,-96.8429,-2.0,20.6,11111222 
TABS,ioos:station:wmo:42048:1,2013-05-05T22:00:00Z,27.9396,-96.8429,-2.0,20.62,11111222 
TABS,ioos:station:wmo:42048:1,2013-05-05T22:30:00Z,27.9396,-96.8429,-2.0,20.65,11111222 
TABS,ioos:station:wmo:42048:1,2013-05-05T23:00:00Z,27.9396,-96.8429,-2.0,20.64,11111222 
TABS,ioos:station:wmo:42048:1,2013-05-05T23:30:00Z,27.9396,-96.8429,-2.0,20.64,11111222 
TABS,ioos:station:wmo:42048:1,2013-05-06T00:00:00Z,27.9396,-96.8429,-2.0,20.62,11111222 
TABS,ioos:station:wmo:42048:1,2013-05-06T00:30:00Z,27.9396,-96.8429,-2.0,20.59,11111222 
TABS,ioos:station:wmo:42048:1,2013-05-06T01:00:00Z,27.9396,-96.8429,-2.0,20.56,11111222 
TABS,ioos:station:wmo:42048:1,2013-05-06T01:30:00Z,27.9396,-96.8429,-2.0,20.53,11111222 
TABS,ioos:station:wmo:42048:1,2013-05-06T02:00:00Z,27.9396,-96.8429,-2.0,20.5,11111222 
TABS,ioos:station:wmo:42048:1,2013-05-06T02:30:00Z,27.9396,-96.8429,-2.0,20.49,11111222 
TABS,ioos:station:wmo:42048:1,2013-05-06T03:00:00Z,27.9396,-96.8429,-2.0,20.49,11111222 
TABS,ioos:station:wmo:42048:1,2013-05-06T03:30:00Z,27.9396,-96.8429,-2.0,20.48,11111222 
TABS,ioos:station:wmo:42048:1,2013-05-06T04:00:00Z,27.9396,-96.8429,-2.0,20.47,11111222 
TABS,ioos:station:wmo:42048:1,2013-05-06T04:30:00Z,27.9396,-96.8429,-2.0,20.47,11111222 
TABS,ioos:station:wmo:42048:1,2013-05-06T05:00:00Z,27.9396,-96.8429,-2.0,20.47,11111222 
TABS,ioos:station:wmo:42048:1,2013-05-06T05:30:00Z,27.9396,-96.8429,-2.0,20.47,11111222 
TABS,ioos:station:wmo:42048:1,2013-05-06T06:00:00Z,27.9396,-96.8429,-2.0,20.48,11111222 
TABS,ioos:station:wmo:42048:1,2013-05-06T06:30:00Z,27.9396,-96.8429,-2.0,20.48,11111222 
TABS,ioos:station:wmo:42048:1,2013-05-06T07:00:00Z,27.9396,-96.8429,-2.0,20.48,11111222 
TABS,ioos:station:wmo:42048:1,2013-05-06T07:30:00Z,27.9396,-96.8429,-2.0,20.48,11111222 
TABS,ioos:station:wmo:42048:1,2013-05-06T08:00:00Z,27.9396,-96.8429,-2.0,20.47,11111222 
TABS,ioos:station:wmo:42048:1,2013-05-06T08:30:00Z,27.9396,-96.8429,-2.0,20.48,11111222 
TABS,ioos:station:wmo:42048:1,2013-05-06T09:00:00Z,27.9396,-96.8429,-2.0,20.47,11111222 
TABS,ioos:station:wmo:42048:1,2013-05-06T09:30:00Z,27.9396,-96.8429,-2.0,20.47,11111222 
TABS,ioos:station:wmo:42048:1,2013-05-06T10:00:00Z,27.9396,-96.8429,-2.0,20.47,11111222 
TABS,ioos:station:wmo:42048:1,2013-05-06T10:30:00Z,27.9396,-96.8429,-2.0,20.46,11111222 
TABS,ioos:station:wmo:42048:1,2013-05-06T11:00:00Z,27.9396,-96.8429,-2.0,20.46,11111222 
TABS,ioos:station:wmo:42048:1,2013-05-06T11:30:00Z,27.9396,-96.8429,-2.0,20.45,11111222 
TABS,ioos:station:wmo:42048:1,2013-05-06T12:00:00Z,27.9396,-96.8429,-2.0,20.42,11111222 
TABS,ioos:station:wmo:42048:1,2013-05-06T12:30:00Z,27.9396,-96.8429,-2.0,20.45,11111222 
TABS,ioos:station:wmo:42048:1,2013-05-06T13:00:00Z,27.9396,-96.8429,-2.0,20.45,11111222 
TABS,ioos:station:wmo:42048:1,2013-05-06T13:30:00Z,27.9396,-96.8429,-2.0,20.46,11111222 
TABS,ioos:station:wmo:42048:1,2013-05-06T14:00:00Z,27.9396,-96.8429,-2.0,20.45,11111222 